Flag for Germany Weather past 2 weeks in Königs Wusterhausen, Brandenburg, Germany

Now
63 °F

Scattered clouds.


Feels Like: 63 °F
Forecast: 51 / 72 °F
Wind: 8 mph from Northeast

Location: Berlin-Schoenefeld


UV Index: 3 (Moderate)

Visibility: N/A


Pressure: 30.09 "Hg

Humidity: 77%

Dew point: 55 °F

Location of Königs WusterhausenLocation

Historic Weather in Königs Wusterhausen

°F

Königs Wusterhausen temperature yesterday

Maximum temperature yesterday: 68 °F (at 1:50 PM)
Minimum temperature yesterday: 48 °F (at 6:50 AM)
Average temperature yesterday: 58 °F

Past Weeks' High & Low Weather Summary

 TemperatureHumidityPressure
High70 °F (Apr 19, 4:50 PM)100% (Apr 11, 6:50 AM)30.45 "Hg (Apr 11, 6:50 AM)
Low32 °F (Apr 17, 5:20 AM)30% (Apr 16, 3:20 PM)29.68 "Hg (Apr 14, 9:20 AM)
Average51 °F76%30.01 "Hg
* Reported Apr 9 5:20 PM — Apr 24 5:50 PM, Königs Wusterhausen, Weather by CustomWeather, © 2014

Note: Actual official high and low records may vary slightly from our data, if they occured in-between our weather recording intervals... More about our weather records

Advertising

Historic Weather Conditions — Data for Previous 24 hours

 ConditionsComfort  
Time TempWeatherWind HumidityBarometerVisibility
5:50 PM
Apr 24
64 °FScattered clouds.10 mph73%30.09 "HgN/A
5:20 PM66 °FScattered clouds.6 mph64%30.09 "HgN/A
4:50 PM66 °FScattered clouds.5 mph64%30.09 "HgN/A
4:20 PM66 °FScattered clouds.6 mph64%30.09 "HgN/A
3:50 PM64 °FScattered clouds.3 mph68%30.09 "HgN/A
3:20 PM64 °FScattered clouds.2 mph68%30.12 "HgN/A
2:50 PM63 °FScattered clouds.3 mph77%30.12 "HgN/A
2:20 PM61 °FPartly sunny.5 mph77%30.12 "HgN/A
1:50 PM61 °FPartly sunny.5 mph83%30.15 "HgN/A
1:20 PM59 °FPartly sunny.5 mph82%30.15 "HgN/A
12:50 PM57 °FPartly sunny.3 mph88%30.15 "HgN/A
12:20 PM57 °FPartly sunny.2 mph88%30.15 "HgN/A
11:50 AM57 °FPartly sunny.2 mph88%30.15 "Hg6 mi
11:20 AM55 °FPartly sunny.2 mph94%30.18 "Hg4 mi
10:50 AM55 °FPartly sunny.2 mph94%30.18 "Hg4 mi
10:20 AM54 °FFog.3 mph100%30.15 "Hg2 mi
9:20 AM52 °FFog.5 mph100%30.15 "Hg1 mi
8:50 AM50 °FFog.5 mph100%30.15 "Hg1 mi
8:20 AM50 °FFog.5 mph100%30.15 "Hg0 mi
7:50 AM50 °FFog.5 mph100%30.15 "Hg0 mi
7:20 AM50 °FFog.5 mph100%30.15 "Hg0 mi
6:50 AM50 °FFog.5 mph100%30.15 "Hg0 mi
6:20 AM48 °FFog.6 mph100%30.15 "Hg0 mi
5:50 AM48 °FFog.5 mph100%30.15 "Hg0 mi
5:20 AM48 °FFog.6 mph100%30.12 "Hg1 mi
4:50 AM48 °FFog.5 mph100%30.15 "Hg2 mi
4:20 AM48 °FFog.6 mph100%30.15 "Hg2 mi
3:50 AM48 °FFog.7 mph100%30.15 "Hg2 mi
3:20 AM50 °FFog.8 mph94%30.15 "Hg2 mi
2:50 AM48 °FPassing clouds.7 mph100%30.12 "Hg4 mi
2:20 AM50 °FPassing clouds.7 mph94%30.12 "Hg5 mi
1:50 AM50 °FPassing clouds.6 mph94%30.15 "Hg5 mi
1:20 AM52 °FPassing clouds.7 mph88%30.15 "Hg5 mi
12:20 AM54 °FPassing clouds.7 mph94%30.12 "Hg4 mi
11:50 PM
Apr 23
54 °FPassing clouds.7 mph94%30.12 "Hg4 mi
11:20 PM55 °FPassing clouds.6 mph94%30.12 "HgN/A
10:50 PM55 °FPassing clouds.6 mph94%30.12 "HgN/A
10:20 PM55 °FPassing clouds.7 mph94%30.12 "HgN/A
9:50 PM55 °FClear.7 mph94%30.12 "Hg10 mi
9:20 PM57 °FClear.9 mph88%30.12 "Hg10 mi
8:50 PM59 °FPartly sunny.7 mph82%30.12 "HgN/A
8:20 PM59 °FPartly sunny.7 mph88%30.12 "HgN/A
7:50 PM61 °FPartly sunny.9 mph77%30.09 "HgN/A
7:20 PM61 °FScattered clouds.10 mph77%30.09 "HgN/A
6:50 PM63 °FScattered clouds.10 mph73%30.09 "HgN/A
6:20 PM63 °FScattered clouds.8 mph77%30.09 "HgN/A
Weather by CustomWeather, © 2014

See weather overview